Regional Weather Roundup
Issued by NWS Little Rock, AR

Home | Current Version | Previous Version | Graphics & Text | Print | Product List | Glossary On
Versions: 1 2 3 4 5 6 7 8 9 10 11 12 13 14 15 16 17 18 19 20 21 22 23 24 25 26 27 28 29 30 31 32 33 34 35 36 37 38 39 40 41 42 43 44 45 46 47 48 49 50
000
ASUS44 KLZK 261605
RWRLZK

WEATHER ROUNDUP FOR ARKANSAS
NATIONAL WEATHER SERVICE LITTLE ROCK AR
1100 AM CDT SAT MAY 26 2018

NOTE: "FAIR" INDICATES FEW OR NO CLOUDS BELOW 12,000 FEET WITH NO
SIGNIFICANT WEATHER AND/OR OBSTRUCTIONS TO VISIBILITY.

ARZ001-003-010-029-261700-
NORTHWEST ARKANSAS

CITY           SKY/WX    TMP DP  RH WIND       PRES   REMARKS
FAYETTEVILLE   SUNNY     80  67  64 CALM      29.92S
FORT SMITH     SUNNY     82  69  64 CALM      29.88S HX  85
HARRISON       CLOUDY    79  70  74 VRB5      29.92S
BENTONVILLE    SUNNY     80  67  64 CALM      29.94S
ROGERS         SUNNY     81  68  64 VRB3      29.93S
SILOAM SPGS    SUNNY     81  69  67 S5        29.93S
HIGHFILL       SUNNY     80  68  66 CALM      29.93R
SPRINGDALE     SUNNY     81  68  65 CALM      29.94S
$$

ARZ004-005-016-261700-
NORTH CENTRAL ARKANSAS

CITY           SKY/WX    TMP DP  RH WIND       PRES   REMARKS
BATESVILLE     CLOUDY    75  71  87 SE3       29.90R
FLIPPIN        CLOUDY    76  70  82 CALM      29.90S
MTN HOME       MOSUNNY   74  69  85 CALM      29.89S
$$

ARZ040-041-261700-
WEST CENTRAL ARKANSAS

CITY           SKY/WX    TMP DP  RH WIND       PRES   REMARKS
MENA           SUNNY     86  64  48 W3        29.90F HX  87
MOUNT IDA      SUNNY     82  71  69 CALM      29.87S HX  86
$$

ARZ009-017-025-026-028-261700-
NORTHEAST ARKANSAS

CITY           SKY/WX    TMP DP  RH WIND       PRES   REMARKS
CORNING        FAIR      81  75  83 CALM      29.88F HX  86
JONESBORO      FAIR      79  73  82 S5        29.88S
NEWPORT        CLOUDY    78  71  79 E5        29.89S
WALNUT RIDGE     N/A     79  71  76 S6        29.89S
BLYTHEVILLE    FAIR      81  69  67 S8        29.89S
$$

ARZ022-023-033-042-044-261700-
CENTRAL ARKANSAS

CITY           SKY/WX    TMP DP  RH WIND       PRES   REMARKS
LITTLE ROCK    PTSUNNY   78  71  79 VRB5      29.88S
N LITTLE ROCK    N/A     78  73  84 SE3       29.84S
JACKSONVILLE   CLOUDY    80  71  73 CALM      29.87S
CONWAY         MOSUNNY   79  70  73 CALM      29.87S
SEARCY         FAIR      82  73  74 SE5       29.88F HX  87
HOT SPRINGS    CLOUDY    78  71  79 CALM      29.89S
RUSSELLVILLE   MOSUNNY   79  70  74 VRB3      29.87F
CLINTON        FAIR      73  70  88 CALM      29.89S
$$

ARZ036-261700-
EAST ARKANSAS

CITY           SKY/WX    TMP DP  RH WIND       PRES   REMARKS
WEST MEMPHIS   CLOUDY    79  73  82 S8        29.89R
$$

ARZ050-053-066-070-073-261700-
SOUTHWEST ARKANSAS

CITY           SKY/WX    TMP DP  RH WIND       PRES   REMARKS
ARKADELPHIA    FAIR      78  70  76 CALM      29.89R
CAMDEN         FAIR      82  70  65 CALM      29.87S HX  86
TEXARKANA      SUNNY     84  67  56 NW6       29.87F HX  86
EL DORADO      FAIR      86  66  51 VRB3      29.88S HX  88
DE QUEEN       SUNNY     82  71  69 CALM      29.85F HX  86
$$

ARZ056-057-069-261700-
SOUTHEAST ARKANSAS

CITY           SKY/WX    TMP DP  RH WIND       PRES   REMARKS
PINE BLUFF     PTSUNNY   76  69  79 VRB7      29.88F HAZE
STUTTGART      FAIR      76  70  82 SE7       29.88F

$$





USA.gov is the U.S. government's official web portal to all federal, state and local government web resources and services.